Regional Weather Roundup
Issued by NWS Wakefield, VA

Home | Current Version | Previous Version | Text Only | Print | Product List | Glossary Off
Versions: 1 2 3 4 5 6 7 8 9 10 11 12 13 14 15 16 17 18 19 20 21 22 23 24 25 26 27 28 29 30 31 32 33 34 35 36 37 38 39 40 41 42 43 44 45 46 47 48 49 50

000
ASUS41 KAKQ 272315
RWRAKQ

REGIONAL WEATHER ROUNDUP
NATIONAL WEATHER SERVICE WAKEFIELD VA
700 PM EDT FRI MAY 27 2016

Note: "fair" indicates few or no clouds below 12,000 feet with no
significant weather and/or obstructions to visibility. * = Denotes
station may not report precipitation (e.g., rain,snow,etc.),
thunder or fog.

VAZ042-051-052>054-056-280000-
NORTHERN VIRGINIA

CITY           SKY/WX    TMP DP  RH WIND       PRES   REMARKS
WASH NATIONAL  PTSUNNY   83  69  62 S12       30.02S
DULLES         PTSUNNY   85  66  53 S8        30.03R
FORT BELVOIR   FAIR      84  70  62 SE6       30.03R
QUANTICO       PTSUNNY   82  69  64 SW7       30.04R
FREDERICKSBRG* FAIR      87  69  54 S6        30.03R
STAFFORD*      FAIR      85  64  49 S6        30.08R
WARRENTON      FAIR      85  63  47 S5        30.03S
CULPEPER*      FAIR      86  68  54 S7        30.04S
MANASSAS*      SUNNY     88  68  51 S7        30.02S
LEESBURG*      FAIR      86  70  58 S5        30.04R
WINCHESTER     LGT RAIN  73  63  68 W8        30.05F
FRONT ROYAL*   CLOUDY    70  64  83 W7G24     30.06S
LURAY*         FAIR      77  64  65 SE3       30.06R
$$

VAZ048-049-060>072-079>083-280000-
CENTRAL AND SOUTH CENTRAL VIRGINIA

CITY           SKY/WX    TMP DP  RH WIND       PRES   REMARKS
RICHMOND       FAIR      84  66  54 S7        30.05S
CHESTERFIELD*  FAIR      84  61  45 S9        30.07S
PETERSBURG*    FAIR      85  65  50 S5        30.07R
HANOVER        FAIR      85  63  47 S10       30.06S
TAPPAHANNOCK*  FAIR      86  64  46 S6        30.06R
QUINTON*       FAIR      85  67  54 S7        30.05S
CHARLOTTSVILLE FAIR      84  67  56 S9        30.05R
GORDONSVILLE*  FAIR      85  69  57 S8        30.04R
ORANGE*        FAIR      86  66  51 NE5       30.06S
LOUISA*        FAIR      88  70  55 S3        30.04R
BUMPASS*       FAIR      84  67  57 S5        30.05R
FARMVILLE*     FAIR      85  66  53 S8        30.04S
CREWE*         FAIR      83  66  56 S6        30.06R
FORT PICKETT*  NOT AVBL
CHASE CITY*    FAIR      84  64  49 SE6       30.07S
CLARKSVILLE*   FAIR      82  66  57 S6        30.06F
SOUTH HILL*    FAIR      81  69  65 S5        30.13S
LAWRENCEVILLE* FAIR      83  68  60 S7        30.07S
EMPORIA*       FAIR      82  64  54 SE5       30.09R
$$

VAZ088>098-280000-
SOUTHEAST VIRGINIA

CITY           SKY/WX    TMP DP  RH WIND       PRES   REMARKS
NORFOLK        FAIR      81  58  45 S14       30.09S
VIRGINIA BEACH FAIR      80  60  50 SE14      30.10S
NORFOLK NAVAL  FAIR      82  60  47 SE9       30.10S
WEST POINT*    FAIR      83  66  54 SE8       30.07F
SALUDA*        FAIR      80  67  63 S12       30.07S
NEWPORT NEWS   FAIR      83  63  50 S12       30.07F
LANGLEY AFB    FAIR      82  63  52 SE13      30.08S
FORT EUSTIS    FAIR      83  69  63 S6        30.06S
WILLIAMSBURG*  FAIR      86  70  58 S6        30.08S
HR EXEC AP*    FAIR      82  61  47 S9        30.11S
FRANKLIN*      FAIR      82  61  48 S8        30.08S
US460-WAKEFLD  FAIR      84  64  50 S6        30.07S
$$

VAZ020-022-025-037-045-280000-
WEST CENTRAL AND SOUTHWEST VIRGINIA

CITY           SKY/WX    TMP DP  RH WIND       PRES   REMARKS
STAUNTON*      FAIR      81  65  59 NE9       30.10R
WAYNESBORO*    FAIR      81  64  56 SE5       30.08R
HOT SPRINGS VA CLOUDY    72  61  67 S8        30.20R
LYNCHBURG      FAIR      82  65  56 S10       30.07S
DANVILLE       FAIR      82  64  54 VRB6      30.06S
SOUTH BOSTON*  FAIR      83  65  54 S7        30.06S
MARTINSVILLE   FAIR      80  63  55 CALM      30.09S
ROANOKE        FAIR      82  66  58 S9        30.08S
BLACKSBURG     FAIR      81  64  55 S8        30.14S
DUBLIN*        FAIR      76  66  71 W3        30.12S
MARION*        PTSUNNY   75  64  68 CALM      30.15S
HILLSVILLE*    FAIR      75  63  66 S8        30.14S
RICHLANDS*     FAIR      76  69  78 S3        30.12S
WISE*          TSTM      66  64  94 SW5       30.14F
ABINGDON*      CLOUDY    75  65  69 W10G16    30.11R
$$

MDZ021>025-VAZ099-100-280000-
SOUTHERN MARYLAND AND THE DELMARVA PENINSULA

CITY           SKY/WX    TMP DP  RH WIND       PRES   REMARKS
PATUXENT RIVER MOSUNNY   79  63  57 S10       30.05S
BAY BRIDGE APT SUNNY     82  68  61 S9        30.04R
LEONARDTOWN    SUNNY     79  63  57 SE9G16    30.07R
DOVER          SUNNY     84  69  60 S9        30.03S
GEORGETOWN     SUNNY     80  63  55 S12       30.08R
EASTON         SUNNY     82  70  65 S13       30.09S
CAMBRIDGE      SUNNY     79  63  57 S10G18    30.06S
SALISBURY      SUNNY     79  60  52 S13       30.08S
OCEAN CITY     MOSUNNY   72  59  63 SW10G20   30.10F
WALLOPS ISLAND FAIR      73  59  61 S17       30.11F
ACCOMACK*      FAIR      77  55  47 S6G16     30.10S
$$

NCZ012>017-030>032-280000-
NORTH CENTRAL AND EASTERN NORTH CAROLINA

CITY           SKY/WX    TMP DP  RH WIND       PRES   REMARKS
ROANOKE RAPIDS FAIR      82  63  51 S6        30.07S
RALEIGH        MOSUNNY   84  62  47 S7        30.07F
ELIZABETH CITY SUNNY     79  57  46 S8        30.11F
AHOSKIE*       SUNNY     80  59  47 S12       30.09S
EDENTON*       SUNNY     80  59  48 S10       30.12S
CURRITUCK*     SUNNY     79  60  51 SE6       30.12S
KILL DEVIL HLS SUNNY     79  62  55 SE9       30.12S
MANTEO         NOT AVBL
CAPE HATTERAS  SUNNY     78  63  59 SE6       30.14S
TARBORO*       FAIR      85  61  45 SE8       30.09S
GOLDSBORO      SUNNY     83  56  39 S9        30.08S
WASHINGTON     SUNNY     80  60  51 SE8       30.11S
GREENVILLE     SUNNY     82  55  39 SE13      30.11S
NEW BERN       SUNNY     79  58  48 SE6       30.12S
WILMINGTON     SUNNY     77  61  57 E10       30.11F
$$

VAZ048-280000-
ELSEWHERE

CITY           SKY/WX    TMP DP  RH WIND       PRES   REMARKS
HARRISBURG PA  PTSUNNY   82  67  60 SW6       30.00R
BALTIMORE      CLOUDY    82  68  62 SE7       30.03R
ANNAPOLIS      SUNNY     77  65  66 S15G24    30.03S
ANDREWS AFB    FAIR      83  68  59 S9        30.03S
PHILADELPHIA   PTSUNNY   87  64  46 SW9       30.02S
HENDERSON NC   SUNNY     80  63  56 S6        30.07F
GREENSBORO     MOSUNNY   81  62  52 S12       30.08S
ROCKY MOUNT    SUNNY     84  59  42 S6        30.08S
$$

VAZ100-280000-
MARINE

STATION/POSITION TIME  TEMP    WIND        PRES    WAVE   SWELL
                       AIR SEA DIR/SP/G            HT/PER HT/PER
                 (UTC) (F)     (DEG/KT/KT) (MB)    (FT/S) (FT/S)
BRANDYWINE LGT   2200                      1017.8F
CAPE MAY NJ      2200                      1017.9F
LEWES DE         2200                      1018.2R
15NM E FENWICK I 2250   67 61              1019.2F   3/ 4
OCEAN-CITY-INLET 2200                      1020.0F
WACHAPREAGUE VA  2200                      1019.0F
THOMAS POINT MD  2300   75 66  160/ 17/ 18 1018.3S
GOOSES REEF MD   2300   71 67  160/ 17/ 21 1018.8R   2/ 3
COVE POINT MD    2200                      1018.1F
SOLOMONS ISLAND  2212      67                N/A
BISHOPS HEAD MD  2200                      1018.4F
PINEY POINT MD   2200          160/ 18/ 19   N/A
POTOMAC MD       2300   74 69  190/ 16/ 17 1017.2S   2/ 3
CAMBRIDGE MD     2200                      1017.1F
LEWISETTA VA     2200                      1017.3F
RAPPAHANNOCK LGT 2200                      1019.5F
STINGRAY PT      2300   72 69  160/ 17/ 21 1018.6F   3/ 3
YORK RVR RNG VA  2200                      1017.9F
YORKTOWN VA      2200                      1018.0F
JAMESTOWN VA     2300   82 74  170/  8/ 10   N/A     0
DOMINION TERM VA 2200                      1018.6F
KIPTOPEKE VA     2212      71                N/A
CHES BAY BRIDGE  2200                      1019.1F
CAPE HENRY VA    2224          150/ 14/ 20   N/A
CHESAPEAKE LGHT  2200   72     170/ 19/ 20 1020.2F
WILLOUBY STN VA  2200                      1019.6F
CAPE HENRY BUOY  2212      69                N/A     2/ 8
1ST LANDING BUOY 2300   73 70  130/ 14/ 17 1019.2R   2/ 3
CAPE CHARLES BUO 2226      66                N/A     2/ 4   2/ 8
OFFSHORE WE BUOY 2221      66                N/A     2/ 7   2/ 7
64NM E OF VA BCH 2250   69 63  150/  6/  6 1020.5F   2/ 8   2/ 8
DUCK PIER NC     2200                      1019.4F
44100 DUCK FRF   2224      68                N/A     2/ 7
44056 DUCK FRF   2211      64                N/A     2/ 8
OREGON INLET NC  2200                      1020.6F
HATTERAS NC      2200                      1020.1F
DIAMOND SHLS NC  2250   77 78  130/ 10/ 12 1020.3F   3/ 7   2/ 7
CAPE C1F1C2F2C3F3C4F4C5F5C6F6C7F7C8M1C9!


USA.gov is the U.S. government's official web portal to all federal, state and local government web resources and services.